Wind_Speed
52 54 50 46 43 42 41 37 34 33 36 38 39 39 38 39 40 41 41 41 41 42 42 40 40 40 40 40 41 41 42 42 42 40 42 44 44 43 41 40 43 45 47 48 50 52 53 54 53 52 51 50 50 50 50 49 48 47 46 44 43 42 42 41 41 43 45 44 44 45 47 48 49 51 52 52 51 51 52 52 53 53 52 50 48
55 49 45 43 43 42 39 38 35 35 39 40 40 40 40 41 42 42 42 42 42 42 43 44 43 43 44 43 42 42 42 42 42 39 39 40 41 41 40 38 39 40 42 43 45 48 50 52 54 54 54 54 53 52 52 51 51 51 50 49 47 46 44 43 42 42 44 45 45 45 45 47 49 51 52 52 52 52 53 53 53 53 54 53 52
52 47 44 44 44 39 36 38 38 39 41 41 42 42 41 40 40 40 40 40 41 41 41 43 44 44 44 44 43 42 40 39 38 39 39 39 38 38 37 36 37 37 38 38 39 42 45 48 51 53 54 56 56 56 55 54 53 53 53 53 52 51 49 46 44 43 44 44 46 47 46 44 46 48 50 51 52 52 52 53 54 54 54 55 54
49 47 45 45 43 36 35 38 38 40 41 41 43 43 41 40 38 38 39 39 38 37 37 38 40 42 42 42 41 40 40 37 35 35 35 35 32 31 31 31 34 37 40 39 37 37 39 43 47 50 51 53 55 57 57 57 57 55 54 54 54 55 54 51 48 46 46 45 46 47 46 45 45 45 47 49 51 52 51 52 53 54 55 56 56
47 48 46 44 41 33 35 40 40 41 42 42 42 42 42 41 39 37 37 39 38 36 36 36 36 37 37 38 37 37 39 39 37 32 29 30 29 28 28 29 32 38 41 41 39 36 36 39 42 46 48 50 52 54 56 57 58 58 57 55 55 56 57 56 54 51 48 47 47 47 46 47 47 46 45 46 47 50 51 52 52 53 54 56 57
45 47 44 42 39 33 35 42 44 42 42 41 40 39 40 40 39 37 36 38 37 35 35 34 33 32 32 33 34 35 37 38 36 32 28 28 32 34 35 34 35 38 40 41 41 39 38 38 38 40 44 47 50 52 53 55 56 57 58 56 55 55 56 58 58 55 52 51 49 48 48 47 47 46 46 45 45 47 48 50 52 52 53 54 55
45 44 41 40 39 36 38 41 42 42 42 41 38 37 36 37 37 36 35 35 34 32 33 32 31 30 29 30 32 34 35 35 34 34 32 32 35 38 39 38 38 39 41 43 44 43 42 41 39 39 41 44 47 50 52 53 54 55 56 57 56 54 55 57 59 58 56 54 52 51 50 48 46 47 46 45 45 46 47 49 50 51 53 54 54
46 42 40 39 38 38 40 40 40 40 41 40 39 38 36 36 36 35 34 33 32 30 30 29 29 29 28 29 30 31 31 31 31 32 34 36 38 40 41 43 42 43 45 46 47 46 45 44 43 42 41 41 44 48 51 52 53 54 54 55 55 54 54 55 58 59 59 58 55 54 53 50 47 47 47 46 46 46 46 48 49 49 51 53 54
44 41 40 39 38 39 40 41 40 39 40 40 40 39 38 36 36 35 34 33 31 30 28 27 27 27 27 27 28 27 26 26 27 29 33 36 38 40 43 45 46 47 48 48 48 48 47 46 45 44 42 41 42 46 49 51 53 54 54 54 55 54 54 54 56 58 59 60 58 56 55 53 50 49 48 48 48 48 48 48 48 49 50 51 52
42 41 40 39 38 39 39 41 41 40 41 41 41 40 39 37 36 35 34 33 31 29 28 26 25 25 25 25 25 25 24 23 24 26 30 34 36 39 42 45 47 49 50 50 50 49 49 48 47 46 44 42 42 44 49 52 53 54 54 53 54 54 54 54 55 57 57 59 59 58 56 55 53 51 50 49 49 50 50 49 49 50 51 51 51
42 41 41 40 39 38 39 39 40 40 41 41 41 40 39 38 37 35 34 32 30 28 27 26 24 23 22 23 23 23 23 23 23 25 27 30 33 36 39 42 45 47 48 50 50 50 49 49 49 48 46 44 44 45 48 51 53 54 54 53 53 53 53 53 55 55 56 58 58 58 58 56 55 54 52 51 50 50 50 50 49 49 51 52 53
42 41 41 40 39 39 39 38 38 39 40 40 40 40 40 38 36 34 32 30 28 27 26 25 23 22 20 20 20 21 21 21 22 23 24 26 29 31 34 37 39 42 44 45 47 47 48 48 50 49 48 47 45 45 47 50 53 54 54 54 53 53 51 52 54 54 54 57 58 58 58 57 56 55 54 53 53 52 51 52 51 50 51 52 53
44 42 40 39 40 39 38 38 38 39 39 39 39 39 39 37 35 32 30 29 27 25 24 23 22 21 20 20 19 19 20 20 21 21 22 23 25 27 29 32 34 36 38 40 42 43 44 45 47 48 48 47 46 45 46 48 52 55 55 54 53 54 51 49 50 50 50 53 58 59 58 57 56 55 54 54 54 53 53 54 53 52 53 53 52
45 43 38 37 39 37 36 36 37 38 38 38 39 38 37 36 34 30 28 27 25 24 23 22 22 21 21 20 20 20 20 20 21 21 22 24 25 27 28 30 32 33 35 37 38 40 41 42 43 44 45 45 46 45 44 46 49 54 57 53 51 52 52 48 46 44 44 49 56 59 59 58 57 55 54 54 54 54 54 54 53 53 54 54 53
44 44 38 37 40 37 35 35 36 37 37 37 37 36 36 35 32 29 27 26 25 24 23 22 21 21 21 21 21 21 21 22 22 23 25 26 27 29 30 31 32 33 34 34 36 37 38 40 40 41 42 42 43 42 42 43 46 51 55 52 49 50 51 49 45 43 44 48 54 60 62 60 58 55 54 53 53 54 54 53 53 53 54 54 55
43 44 40 39 40 37 35 34 35 36 36 36 36 36 35 32 31 29 27 26 25 24 23 22 21 21 21 21 21 21 22 23 24 24 26 27 29 30 31 32 33 33 33 32 33 34 35 37 37 38 38 38 39 38 38 40 43 48 51 49 48 49 50 48 44 45 49 51 52 57 62 63 59 56 55 53 53 53 54 54 53 53 54 54 55
40 42 42 41 39 37 35 33 33 33 34 34 34 34 34 32 30 29 27 26 24 23 22 22 22 21 21 20 21 22 23 23 24 25 26 27 29 31 32 33 34 34 33 31 30 30 31 33 34 35 35 35 35 35 35 37 40 44 47 48 47 48 49 47 44 47 53 55 53 54 58 61 58 55 54 53 52 52 53 54 54 53 53 54 54
38 40 40 39 37 36 35 33 32 31 32 33 32 32 33 32 30 28 27 25 24 23 23 23 23 22 22 21 21 22 23 24 25 25 26 27 28 30 32 33 34 34 33 31 28 27 27 28 30 31 31 32 33 33 33 35 38 41 44 44 43 44 48 48 46 50 55 58 57 56 56 58 55 51 51 52 51 51 51 52 52 53 53 53 54
38 39 38 36 36 36 34 32 31 30 30 31 31 31 30 30 29 28 26 25 24 23 23 23 23 23 22 22 21 22 23 23 24 25 26 27 28 30 31 33 34 34 34 33 30 26 25 24 25 27 28 28 29 30 31 33 36 39 41 42 40 42 48 48 48 51 55 57 58 57 56 56 53 49 47 49 50 50 50 50 50 51 52 52 53
37 39 39 37 34 35 34 32 31 30 29 30 29 29 29 28 28 27 26 25 24 23 23 23 23 23 22 22 22 22 22 23 24 24 25 26 27 29 31 33 33 34 34 34 33 29 26 23 22 23 24 25 26 27 28 30 33 36 38 40 39 40 46 49 49 52 54 55 56 56 56 55 53 50 46 46 48 48 49 49 49 48 49 51 51
36 36 38 37 34 34 34 32 31 30 28 28 27 27 27 27 26 26 25 25 24 23 23 23 23 23 22 22 22 22 22 22 22 23 24 25 27 29 31 32 33 33 33 34 34 32 30 26 23 21 21 22 23 24 25 27 30 33 35 37 38 39 44 48 50 53 56 57 56 57 57 54 51 50 48 46 47 48 48 48 48 47 48 48 49
36 36 37 37 34 32 32 31 30 30 28 27 27 26 26 25 25 25 25 25 24 23 23 23 23 23 22 21 22 22 22 22 21 21 23 25 27 28 30 31 31 31 32 32 32 33 32 29 26 22 20 20 21 21 23 24 26 29 31 33 35 37 41 45 48 51 54 56 57 57 55 52 48 48 48 46 46 47 47 48 47 47 47 47 47
35 35 35 35 34 31 31 30 29 29 29 27 26 25 25 25 24 23 24 24 24 24 23 23 23 23 22 22 22 22 22 22 20 20 22 24 26 27 29 31 31 30 29 29 30 30 31 31 29 26 22 19 19 19 20 21 23 24 27 29 32 35 38 40 44 47 49 51 54 53 52 50 48 47 46 45 45 46 47 48 47 47 46 45 45
36 35 34 35 35 32 31 31 29 29 29 27 26 25 24 24 24 23 23 23 24 24 24 24 24 24 24 23 22 22 22 22 21 21 22 24 25 27 29 31 32 29 27 26 27 27 28 29 30 29 26 22 19 18 18 19 20 21 23 25 28 31 34 36 39 42 44 46 48 48 48 48 47 46 44 44 44 45 46 47 47 47 46 45 44
36 35 35 35 35 34 32 30 29 28 28 27 27 25 24 23 23 23 23 22 23 24 24 25 25 25 25 24 24 24 23 22 21 21 22 23 24 27 28 31 32 29 26 24 24 24 24 25 27 28 28 25 22 19 17 17 17 18 20 22 25 27 29 31 33 37 39 41 43 44 44 45 45 45 43 42 42 44 46 47 47 47 45 44 43
37 35 35 34 35 35 34 31 30 29 28 26 26 25 24 23 23 23 22 22 23 24 24 25 25 26 26 26 26 27 26 24 23 22 22 22 24 26 27 29 31 30 27 23 22 21 22 22 23 25 26 26 24 21 19 17 16 16 18 19 21 23 25 26 28 31 35 38 40 41 42 42 43 43 42 41 42 43 46 47 47 46 45 44 43
38 36 34 33 33 34 34 32 30 29 29 27 27 26 24 23 23 23 23 23 23 24 25 25 26 26 26 26 27 28 28 26 25 24 23 23 24 25 26 28 30 30 28 24 21 20 20 20 20 21 22 24 23 22 21 19 17 15 15 17 19 20 22 23 25 28 31 34 37 38 38 39 39 40 40 40 41 42 43 44 45 45 44 43 43
38 36 34 33 32 32 33 32 30 29 29 28 27 26 25 24 24 23 23 24 23 24 25 25 26 26 26 26 26 27 28 27 27 26 25 25 24 24 26 27 28 29 28 25 22 20 18 18 18 19 19 20 20 21 21 21 19 17 14 13 15 18 19 21 23 26 28 31 33 35 35 36 37 37 38 38 38 39 41 42 42 43 43 43 43
39 37 35 33 31 31 32 32 31 30 29 28 27 26 25 24 24 23 24 24 24 24 24 25 26 26 26 26 25 26 27 27 28 28 27 26 25 25 25 26 27 27 27 26 24 21 19 17 16 17 17 17 17 18 19 20 20 19 17 14 11 13 16 18 20 23 25 28 30 32 33 34 35 36 37 37 38 39 40 41 41 41 42 42 43
39 38 36 34 32 32 31 32 32 31 30 29 28 27 26 25 24 24 23 24 24 24 24 24 25 26 26 25 24 24 25 26 27 28 28 27 26 25 24 24 25 26 26 26 25 22 20 17 15 15 15 16 16 16 16 16 17 17 17 17 14 10 9 12 15 18 21 24 27 29 31 32 34 35 36 37 38 40 40 40 40 40 40 41 42
39 38 37 35 33 32 32 32 33 32 32 31 29 28 27 25 25 24 24 24 23 23 24 24 24 24 25 24 24 23 24 25 26 26 27 27 27 26 25 24 24 24 25 25 24 22 20 18 16 15 15 15 16 16 15 15 15 15 14 14 15 14 11 8 8 12 16 19 23 26 28 31 32 34 35 37 39 40 41 40 40 39 38 38 40
40 38 38 36 34 32 32 32 32 33 33 32 30 29 28 27 26 25 25 24 24 23 23 23 23 23 23 23 22 22 22 24 25 26 26 26 27 27 25 23 23 23 24 24 24 22 20 18 16 15 15 15 16 17 16 15 16 15 13 11 11 12 13 12 10 8 9 13 17 20 24 27 29 31 33 35 37 39 40 40 39 36 35 37 38
39 38 38 37 36 34 33 32 32 33 34 34 33 31 29 28 27 26 25 25 24 24 23 23 23 23 22 22 21 20 21 23 25 26 26 26 26 26 26 24 23 22 22 23 23 22 19 17 15 13 14 16 17 18 18 17 16 16 15 12 9 8 9 10 11 11 9 8 11 14 18 21 24 27 29 30 32 34 35 34 33 32 33 36 36
39 39 38 38 37 35 34 34 33 33 33 34 34 32 31 30 28 27 26 25 25 24 24 23 23 22 22 21 20 19 20 21 24 25 27 27 26 26 25 23 22 21 21 21 22 22 20 18 15 14 14 16 18 19 18 17 16 15 15 14 11 9 8 6 7 8 9 8 8 9 12 15 18 21 22 24 25 27 28 28 28 29 31 33 33
39 39 39 39 39 37 35 34 33 32 33 33 34 34 32 31 30 28 27 26 25 24 24 24 23 22 21 20 19 19 19 20 22 24 26 27 26 26 24 21 20 20 20 20 21 21 20 19 17 15 14 14 16 18 18 18 17 15 15 14 12 11 10 7 6 6 6 7 7 6 7 10 12 15 17 19 21 22 24 25 26 28 29 30 30
41 40 39 40 39 38 36 35 34 34 33 33 34 34 33 33 31 29 28 26 26 24 24 24 23 23 22 21 19 18 18 20 21 23 26 26 25 25 22 19 19 19 19 19 20 21 21 20 18 16 14 13 13 15 17 17 17 17 16 15 14 11 10 8 7 6 6 6 6 5 5 5 7 9 11 15 18 20 22 24 26 27 28 29 30
41 41 40 39 39 38 37 35 35 34 33 33 33 33 33 33 32 31 29 27 26 25 24 24 24 24 23 22 21 20 19 20 21 23 25 25 24 23 21 18 17 18 18 18 18 19 20 20 18 17 15 12 11 12 14 14 15 16 17 18 17 14 12 10 9 8 8 8 8 8 6 5 5 7 9 12 15 18 21 22 24 26 27 29 30
41 40 39 39 39 38 37 36 35 34 34 33 33 33 33 33 33 33 30 28 26 25 24 24 23 23 24 23 23 22 21 22 22 23 24 24 23 21 20 19 18 17 18 18 17 18 19 19 19 17 16 15 11 11 13 13 13 14 17 18 18 17 15 13 11 10 10 9 10 10 9 8 7 8 11 12 14 17 19 20 22 24 26 29 29
40 39 38 38 38 38 38 37 36 35 34 34 34 34 33 33 33 33 32 30 28 25 24 23 23 23 23 23 23 23 23 23 23 23 23 23 22 20 19 19 19 18 18 18 18 18 17 18 19 17 17 18 14 10 10 11 11 10 11 14 16 16 15 15 14 12 11 11 11 11 12 12 10 10 12 14 15 18 19 19 21 23 25 27 26
39 39 38 37 37 37 37 36 35 35 34 34 34 33 33 33 33 32 32 31 30 27 25 23 23 23 23 23 23 22 22 22 22 22 22 23 22 20 19 18 19 19 19 19 19 18 17 18 18 17 18 19 17 13 11 11 11 10 9 12 14 14 15 15 15 13 12 11 11 12 13 14 14 13 14 15 16 18 20 20 21 23 24 24 24
38 38 38 38 37 36 36 36 35 35 34 34 34 33 33 33 33 32 32 31 30 29 26 24 23 22 22 23 23 22 20 19 19 20 21 21 21 20 19 19 19 19 19 20 19 19 18 18 18 18 19 19 20 18 16 14 15 14 13 14 15 15 16 17 15 13 12 11 11 11 13 15 17 17 17 17 17 18 20 20 21 22 23 23 25
37 37 37 37 37 37 37 36 36 35 34 33 33 33 33 32 32 32 32 31 30 29 28 26 24 23 22 23 23 22 21 18 17 18 19 20 20 21 20 20 19 19 19 20 20 19 19 18 19 19 20 20 20 21 20 19 18 17 17 17 17 17 18 18 16 13 12 11 10 10 11 12 15 17 19 19 19 19 20 21 20 20 20 22 25
37 37 36 36 36 36 36 36 35 34 34 33 33 33 33 32 32 32 32 31 30 29 28 27 25 24 23 22 22 23 22 20 18 18 18 19 19 20 20 20 20 20 20 20 20 20 19 19 20 20 21 21 20 21 22 22 20 20 20 19 19 19 19 19 16 14 13 12 11 10 10 10 12 14 17 19 21 21 22 22 20 19 19 20 22
37 36 36 35 35 35 35 35 34 34 33 33 32 32 32 32 32 31 31 31 30 29 28 28 27 25 23 22 22 23 22 21 20 18 18 18 19 19 20 20 20 21 21 21 20 20 20 20 21 21 21 22 22 22 22 22 22 21 21 20 21 21 21 20 17 14 13 13 12 11 11 11 11 12 14 17 21 23 23 22 21 20 20 19 20
37 36 35 35 34 34 34 34 34 33 32 32 32 32 32 32 32 31 31 31 30 29 28 27 27 26 24 22 22 22 22 22 21 20 19 19 19 19 20 20 21 21 21 21 20 20 21 21 22 22 22 22 23 23 22 22 23 23 21 21 22 22 21 21 19 16 14 14 13 13 13 13 13 13 14 16 19 21 22 22 21 21 21 20 20
38 36 35 34 34 34 33 33 33 32 31 31 31 31 31 31 32 31 31 30 30 29 28 27 27 26 25 23 22 22 22 22 22 22 21 20 19 19 20 20 21 21 21 21 21 21 22 22 23 23 23 22 23 23 23 22 23 23 22 22 22 22 22 21 20 17 16 15 14 14 15 16 16 15 15 16 17 18 20 21 22 21 21 21 20
39 37 35 34 34 33 32 32 32 31 31 30 30 30 30 30 31 31 31 30 30 29 28 27 27 26 26 25 23 22 22 22 22 22 22 22 21 20 20 21 22 22 23 23 23 23 23 24 24 24 23 23 24 24 24 23 22 21 21 21 22 21 21 20 20 19 18 17 16 16 17 18 17 17 16 15 16 17 18 21 21 21 20 20 19
40 38 36 34 34 33 32 32 31 31 31 30 29 29 29 29 29 30 30 30 30 29 28 27 26 26 25 25 24 23 22 22 22 22 22 22 22 21 21 22 22 23 24 25 25 26 25 25 26 25 24 24 24 24 24 23 21 19 19 19 20 20 19 18 19 19 18 17 17 17 17 18 18 17 16 15 15 16 17 19 21 20 19 19 19
41 39 36 35 34 33 32 32 31 31 31 30 29 29 29 28 28 28 29 29 29 29 28 26 26 25 25 24 23 23 23 22 22 22 21 22 23 23 22 22 22 23 25 26 26 27 27 27 26 26 26 26 25 24 24 22 20 18 17 16 16 17 16 15 15 15 15 15 16 15 15 16 16 16 15 14 14 15 16 18 21 21 20 18 17
42 39 37 35 34 33 32 31 31 31 30 30 29 29 29 29 28 28 28 27 27 28 28 26 25 25 24 23 22 22 22 22 21 20 20 20 22 23 24 23 23 23 25 25 26 27 28 28 27 26 27 27 27 26 24 22 20 17 15 14 13 14 14 13 12 12 11 12 13 13 13 13 14 14 13 12 12 13 15 18 20 21 19 16 14
42 40 38 36 34 33 32 31 31 30 30 30 29 29 29 29 28 28 28 27 26 27 27 26 26 24 23 22 21 21 22 21 20 19 18 17 18 20 23 24 25 24 24 25 25 25 26 27 27 26 25 25 25 25 23 21 20 17 13 11 11 11 12 11 11 11 11 11 12 12 13 12 12 12 12 11 10 11 13 17 19 19 18 15 13
Wind_Direction
325 323 324 326 327 325 324 321 317 313 311 308 306 304 303 302 302 302 302 300 300 299 298 296 294 293 293 293 294 294 294 294 294 293 292 290 287 283 279 275 272 269 266 265 263 262 262 263 263 262 261 259 257 256 255 255 254 253 253 253 253 251 249 248 249 248 247 245 244 246 246 245 241 240 240 239 238 238 239 240 241 239 235 233 234
327 327 329 330 330 329 324 318 315 314 313 311 309 309 308 307 306 305 303 301 299 296 294 293 290 289 288 287 288 290 291 292 291 290 288 289 288 286 284 280 276 272 269 267 265 263 262 262 262 262 261 260 259 258 257 257 257 256 255 255 255 254 252 250 249 249 248 246 244 242 243 245 245 243 242 240 238 237 238 239 240 240 238 235 234
331 332 333 331 331 329 319 313 312 315 317 317 315 316 315 313 311 308 305 301 297 294 291 288 285 283 282 282 283 283 285 288 290 290 289 288 289 289 288 287 283 279 274 270 268 267 265 263 261 260 260 259 259 259 258 258 258 258 257 256 256 256 254 253 252 252 250 248 246 244 241 241 243 245 245 243 240 237 236 236 237 238 239 238 237
333 333 332 331 332 328 316 313 316 319 321 321 321 322 321 320 318 315 310 305 301 298 293 287 282 280 278 277 276 277 278 279 282 287 290 291 291 292 292 292 290 287 283 278 275 275 272 267 264 261 259 258 257 257 257 258 258 258 259 258 257 257 255 254 254 255 253 251 249 246 244 242 240 240 244 246 244 241 238 235 234 233 234 236 237
332 331 332 332 333 328 317 318 323 325 325 325 325 325 324 324 323 320 314 309 307 304 299 293 288 286 283 278 274 272 272 271 274 279 284 285 282 278 276 277 279 281 285 286 285 284 279 272 268 265 262 259 257 255 255 255 256 256 257 257 257 257 256 255 254 254 254 254 252 249 246 245 242 240 240 242 244 244 242 240 237 235 233 233 234
332 331 333 334 333 328 318 319 326 328 328 329 329 328 326 326 325 324 320 314 313 310 305 300 297 295 291 285 278 272 268 267 268 269 269 271 272 271 270 269 270 274 280 286 290 292 286 276 270 267 266 263 259 256 253 253 253 254 254 253 254 255 255 255 254 253 253 254 253 251 248 247 245 244 242 241 241 241 242 243 242 240 238 235 233
334 334 335 334 333 329 323 324 328 329 329 331 331 330 329 328 327 328 326 323 321 316 309 306 303 299 294 289 283 278 276 274 270 265 262 264 269 273 274 274 274 276 280 285 290 291 289 283 275 268 265 264 261 258 254 252 250 250 251 251 250 249 251 253 254 253 252 252 252 252 250 248 248 247 245 243 242 241 239 241 242 243 243 240 237
335 335 336 335 333 331 330 332 333 331 330 331 332 333 333 332 331 331 330 329 328 323 317 313 307 302 299 294 289 288 288 286 279 270 264 263 266 269 273 276 279 281 283 286 288 288 287 285 281 274 266 262 261 260 256 253 250 248 247 248 248 246 246 248 250 251 251 250 250 251 251 249 248 248 247 245 245 243 241 240 240 241 242 243 241
336 336 336 336 335 335 335 336 335 333 332 333 334 334 335 334 332 331 331 331 331 330 326 321 314 309 306 301 298 297 293 288 282 274 268 267 268 268 271 275 279 281 282 284 285 285 285 284 282 278 271 264 260 259 258 255 251 248 245 245 245 244 243 244 246 248 250 250 249 249 249 249 248 248 247 246 246 245 244 242 241 239 239 241 242
338 337 336 336 337 338 338 337 336 336 335 335 335 335 334 334 333 332 331 331 331 332 331 328 323 319 315 310 306 302 296 288 281 275 273 274 274 273 274 275 277 279 280 282 283 283 283 283 281 278 275 268 261 258 258 256 253 250 246 244 243 242 241 241 242 244 246 247 247 247 247 248 248 247 247 247 247 246 246 245 244 242 240 238 239
339 337 336 337 338 340 340 339 338 338 337 336 335 335 336 336 335 335 334 333 333 333 333 333 330 327 323 317 313 308 303 297 289 284 281 280 280 280 279 279 279 279 280 281 282 282 281 281 279 277 275 270 264 259 257 257 255 252 248 246 243 241 240 239 239 240 242 244 245 245 245 245 246 246 246 246 247 246 246 246 246 246 244 241 239
341 339 338 339 340 341 341 341 340 340 340 338 338 338 338 338 339 340 339 337 337 337 337 337 337 335 333 329 324 320 316 312 307 303 299 295 293 291 289 287 286 285 284 283 282 282 281 280 279 278 275 271 267 261 258 258 258 254 250 247 245 242 240 238 237 237 239 242 242 242 243 243 244 245 245 246 246 246 246 246 245 245 245 244 242
342 341 339 340 342 342 341 342 343 344 343 342 341 341 340 340 342 345 344 341 341 343 343 344 344 344 344 342 340 337 334 331 328 325 322 318 313 308 304 300 296 292 289 287 285 283 281 280 278 277 276 273 269 263 259 257 258 257 252 247 246 245 242 240 239 238 238 240 242 240 240 241 242 243 244 245 246 246 247 247 246 246 246 246 244
342 341 342 343 343 341 343 345 346 346 347 345 344 343 342 343 345 349 349 346 347 348 350 351 352 353 354 354 353 353 352 351 348 346 343 340 335 329 324 317 310 303 297 292 288 285 283 280 278 277 275 273 270 265 260 258 257 258 255 248 245 245 244 241 240 238 237 240 242 241 239 238 239 240 242 243 244 245 247 248 249 249 248 248 247
342 341 343 345 343 341 345 348 348 349 349 347 346 346 346 347 348 351 353 352 352 354 357 0 2 3 4 5 5 4 4 2 360 356 353 350 345 341 336 331 323 315 307 298 292 287 284 281 279 276 274 271 269 266 261 258 256 256 256 251 244 242 242 241 238 233 231 235 240 242 240 237 236 237 238 241 242 244 245 246 248 250 250 250 250
343 341 342 344 343 341 345 349 349 350 350 349 350 348 348 350 351 353 357 356 356 359 3 5 7 8 8 8 8 6 4 2 360 357 354 352 348 346 343 339 334 326 318 308 299 292 286 284 281 278 275 272 269 266 261 256 253 254 255 251 244 239 238 238 234 230 229 229 234 240 241 238 235 235 236 237 240 242 243 244 245 247 249 251 251
344 341 340 340 340 341 346 350 349 348 349 350 352 350 349 351 353 356 358 358 359 1 4 4 5 6 5 4 4 2 0 358 357 356 353 352 349 347 347 345 342 337 330 321 311 301 293 288 284 281 278 274 270 266 260 254 251 251 253 251 245 238 236 234 229 229 231 230 232 237 240 239 236 235 235 235 236 239 241 243 244 245 247 249 250
345 343 339 337 339 343 346 346 345 347 349 351 352 351 351 352 353 356 358 359 359 359 360 1 1 1 360 358 357 356 355 353 352 351 350 349 348 348 348 348 347 346 342 336 325 314 303 294 288 284 281 277 272 266 260 254 250 249 250 251 246 238 235 231 226 227 231 233 235 239 242 243 239 236 235 234 234 236 239 241 243 244 245 247 248
346 344 341 340 343 344 344 342 342 346 349 349 350 350 351 351 351 354 355 356 357 356 355 355 355 356 355 354 352 350 350 349 347 345 344 345 346 347 347 348 350 351 351 349 343 333 319 306 297 291 286 281 275 269 262 255 251 250 249 249 245 236 235 231 225 226 231 234 238 242 245 247 244 240 237 236 235 235 237 239 241 243 244 246 247
345 344 342 342 343 341 340 340 340 343 346 346 347 347 347 349 350 351 351 352 354 352 351 351 350 349 350 349 348 347 346 345 343 342 342 344 344 345 345 346 349 352 355 356 355 350 340 327 315 304 296 288 281 273 266 258 252 251 250 250 245 236 234 232 226 224 228 233 237 241 244 246 246 243 239 238 237 236 237 238 239 241 243 245 246
344 345 342 341 339 337 337 337 336 339 342 343 343 343 344 346 347 348 348 348 349 348 347 347 346 345 346 345 344 344 343 343 342 342 342 342 343 343 343 344 346 349 354 358 0 359 355 346 335 322 309 298 288 279 271 263 257 253 251 250 248 240 235 233 230 225 226 230 235 239 243 245 245 244 241 239 237 237 237 238 239 240 241 244 246
343 344 342 339 335 332 333 334 334 335 337 338 340 341 341 343 343 344 344 344 344 344 343 343 341 339 340 341 341 341 340 340 340 340 340 340 342 343 345 346 346 346 350 355 360 2 1 358 351 338 324 309 297 287 277 269 263 259 255 251 249 245 239 236 234 231 230 232 235 240 243 244 243 243 241 238 236 236 236 237 238 238 240 242 244
342 343 342 338 333 330 331 333 333 331 331 334 336 337 337 338 339 339 340 340 340 339 339 337 336 334 334 336 337 337 336 336 336 335 337 339 341 344 346 348 348 345 346 350 355 360 2 2 0 353 342 327 311 297 285 276 269 265 261 255 250 247 244 240 237 236 236 237 239 242 244 244 243 241 239 237 236 236 235 236 237 238 239 241 243
340 340 340 339 337 333 329 330 331 328 327 330 332 334 335 333 333 335 336 336 335 335 334 333 332 329 329 331 332 333 332 332 331 331 334 337 340 343 346 348 349 347 344 346 350 355 359 2 3 1 355 346 332 315 299 286 276 269 264 259 254 250 247 243 239 237 237 237 239 241 242 242 242 240 237 236 236 236 236 236 237 238 238 239 241
340 338 339 341 340 336 329 327 327 326 325 327 328 330 331 329 329 331 332 332 331 330 330 330 329 327 327 328 329 330 329 330 330 329 330 333 336 340 344 347 349 349 347 344 345 349 354 359 2 2 1 356 348 338 323 304 288 275 265 259 255 252 249 245 241 239 237 237 237 238 238 239 239 238 236 235 235 236 236 237 237 238 239 239 240
341 338 338 340 340 338 332 326 324 324 324 324 323 326 328 326 326 327 328 328 327 326 326 326 327 326 326 327 328 328 328 329 330 329 328 330 332 336 341 346 348 350 350 347 344 344 348 353 359 2 2 1 357 354 348 334 313 291 274 263 256 252 249 245 241 239 238 238 238 238 237 237 237 236 235 234 234 235 237 238 238 239 240 240 240
340 339 338 338 339 339 335 328 323 322 322 322 321 323 325 324 324 323 324 324 324 323 323 323 324 324 323 325 326 326 327 329 330 330 329 329 330 333 338 344 347 350 351 351 347 344 343 345 353 359 2 3 3 3 2 357 344 323 297 276 262 253 248 243 239 236 236 237 237 238 238 237 237 236 235 234 235 236 238 240 241 241 241 240 239
340 339 338 337 337 338 336 332 326 320 320 321 320 319 320 321 322 321 320 321 321 322 322 321 322 321 321 323 325 324 325 329 331 330 329 328 329 331 335 340 345 348 351 353 350 347 343 340 343 350 356 0 3 4 4 4 1 353 334 304 278 262 252 244 238 235 234 235 235 236 236 235 234 234 235 235 236 238 240 241 241 241 240 239 238
340 339 338 337 336 336 337 336 332 325 320 319 318 317 316 316 318 319 319 319 320 320 321 321 321 320 319 321 323 324 324 327 330 330 328 328 329 330 332 336 341 344 350 354 353 350 347 342 337 338 344 350 355 358 359 1 4 5 1 348 317 283 264 252 243 238 235 234 234 235 235 235 234 234 235 235 237 239 241 242 242 241 240 238 237
341 339 338 337 336 335 336 337 337 333 325 319 317 316 315 314 315 316 317 318 319 319 320 321 320 320 319 320 322 322 322 325 329 330 329 328 329 330 329 331 336 340 346 352 354 353 350 346 340 334 334 339 343 347 349 352 358 4 9 9 1 341 299 269 254 245 240 237 236 235 235 235 236 236 236 236 238 240 242 244 244 243 242 240 238
341 340 338 338 337 335 336 337 339 339 333 325 318 315 316 315 314 313 314 315 318 319 320 321 321 320 320 320 322 322 322 323 326 329 329 329 329 329 327 328 331 336 341 347 353 354 351 348 345 340 335 332 332 334 337 340 344 352 4 12 13 12 5 337 290 262 250 243 239 238 237 237 237 237 238 238 239 242 244 245 246 244 242 241 239
341 340 338 338 338 337 337 336 337 339 337 332 324 318 315 314 314 313 312 312 314 316 320 322 321 321 321 322 322 323 322 323 325 327 328 328 328 328 327 325 328 332 337 343 349 353 351 349 348 345 338 332 328 328 332 334 335 339 347 1 10 12 14 10 357 326 283 260 249 243 241 239 239 239 238 238 239 241 244 245 246 245 242 240 239
341 339 339 339 339 339 338 337 337 337 338 337 332 325 317 314 314 313 312 312 311 313 316 320 322 322 323 323 323 323 323 323 324 325 326 326 326 326 325 324 324 328 335 341 346 349 350 348 349 349 344 339 335 334 334 332 332 332 335 343 357 3 7 9 3 355 340 306 274 257 249 245 242 241 239 238 239 241 243 244 244 242 239 238 238
339 339 340 340 340 340 339 338 337 336 337 337 336 332 325 318 314 313 313 312 311 312 313 316 319 321 322 323 323 323 323 323 322 323 324 325 323 323 323 321 322 325 332 340 345 348 348 346 350 356 357 352 348 344 340 335 332 330 328 330 337 342 345 354 356 353 351 341 316 285 268 259 253 249 246 242 240 240 242 242 241 238 237 238 238
339 340 341 340 340 341 339 338 336 335 336 336 336 336 333 326 319 314 312 312 311 312 312 313 315 317 319 321 320 320 320 320 320 321 323 325 324 321 319 319 321 324 328 337 344 349 349 347 350 356 1 2 358 354 351 346 340 334 329 326 325 325 324 326 331 332 333 337 336 318 294 275 265 260 256 252 247 242 240 238 237 236 236 237 237
338 340 341 339 339 340 339 339 336 334 336 336 336 337 336 333 327 319 314 312 311 312 312 312 312 312 314 316 316 316 317 316 317 318 320 324 325 320 316 318 322 322 325 334 342 348 350 348 347 349 353 2 6 0 358 355 350 346 342 335 326 318 310 306 304 303 302 303 307 308 297 282 274 268 262 258 254 248 244 241 238 237 236 235 234
337 338 339 339 339 339 339 339 337 335 335 335 334 335 336 336 333 326 319 314 312 313 313 311 311 309 309 311 311 312 312 311 312 314 316 320 323 319 315 317 320 320 322 330 338 344 348 348 346 345 342 348 0 359 355 357 356 353 350 344 334 325 317 306 293 286 286 287 288 288 283 273 266 263 261 260 257 253 249 245 243 240 238 236 234
334 335 337 337 338 338 338 338 338 336 336 335 333 334 336 337 336 333 327 320 314 313 312 311 311 309 307 307 307 308 308 307 308 309 309 312 317 318 314 314 318 319 320 324 332 340 345 346 347 345 333 329 342 349 344 347 351 348 343 338 331 327 324 317 303 287 278 275 278 281 281 275 262 255 257 258 258 256 252 249 247 245 242 239 237
331 333 335 336 336 336 337 338 338 336 336 336 334 334 335 336 336 335 333 327 320 315 313 312 310 309 308 307 306 306 306 305 305 305 304 305 309 312 311 311 314 316 318 321 325 333 341 344 346 342 326 320 326 330 324 327 332 331 327 321 317 318 318 316 312 303 290 278 271 270 273 274 267 257 256 257 259 259 257 254 251 249 246 245 244
329 330 333 334 334 334 335 336 337 337 337 336 334 334 333 333 334 335 335 333 328 321 316 314 311 309 309 308 307 306 305 304 304 304 302 300 303 305 306 307 309 311 314 317 319 325 333 339 341 337 326 322 321 316 307 302 298 294 294 297 300 305 305 304 307 309 304 293 278 265 262 266 266 263 259 258 259 261 262 260 256 253 251 250 247
327 328 330 332 333 333 334 335 337 338 338 337 335 334 332 331 331 332 334 335 333 328 322 317 314 312 310 308 308 307 306 308 309 307 303 299 299 301 301 302 304 306 309 312 314 317 322 329 333 331 328 324 320 315 308 298 290 285 283 286 291 296 298 298 303 309 309 303 291 274 260 257 259 260 260 258 258 260 263 264 261 259 258 254 248
326 327 328 330 331 332 332 334 336 337 337 338 337 334 332 331 330 330 331 333 334 334 330 323 317 313 310 308 306 305 307 311 314 313 307 301 299 299 299 298 300 303 306 308 309 310 313 319 323 324 324 322 318 313 309 304 298 290 284 281 285 289 293 296 301 308 310 307 301 290 275 261 256 256 257 258 258 259 260 262 263 263 261 257 252
325 325 327 328 329 330 331 332 333 334 335 338 338 336 334 332 331 329 329 329 331 334 334 330 324 316 311 308 306 305 306 308 313 314 310 306 303 301 299 298 299 302 305 306 306 305 307 310 314 316 316 316 314 312 309 306 302 295 288 283 282 284 287 292 297 303 306 304 302 298 291 280 268 260 255 255 255 256 258 261 264 266 265 262 255
323 323 325 326 326 328 328 328 330 332 334 336 337 337 336 334 333 330 328 327 328 330 333 333 330 323 315 308 305 304 304 305 308 311 310 310 308 304 302 301 300 302 304 304 303 302 302 304 307 309 309 309 309 310 309 306 301 294 287 282 279 281 284 288 292 297 298 298 299 300 297 291 282 271 261 255 252 253 256 259 262 266 268 267 260
321 322 322 323 323 325 326 327 328 330 332 333 335 337 337 336 335 333 330 327 326 327 329 332 332 330 324 314 307 304 303 304 305 306 308 309 308 307 305 304 303 304 304 304 304 303 303 303 305 306 305 305 305 306 306 304 298 292 285 278 276 278 281 284 287 289 288 287 291 297 299 296 290 281 271 263 257 254 254 255 256 260 264 266 263
319 319 320 320 321 322 323 325 326 327 329 331 333 335 336 336 336 336 333 331 328 326 327 329 331 332 331 325 316 307 303 303 304 305 307 308 308 308 306 305 305 305 305 306 307 307 306 305 305 305 305 304 304 305 305 302 297 291 283 275 272 274 276 278 281 283 282 282 287 294 298 297 292 285 276 268 263 257 251 249 250 253 257 262 265
317 317 318 318 318 319 321 322 323 324 326 328 330 332 334 335 336 336 335 334 332 329 327 328 329 331 333 333 328 317 306 302 301 303 304 306 307 308 307 306 306 305 306 307 308 308 308 306 305 304 305 305 306 306 306 303 297 291 282 272 268 269 271 272 273 275 277 279 283 291 296 295 292 288 282 272 264 258 250 245 246 249 254 260 265
316 316 316 315 316 317 318 320 321 322 324 326 328 330 331 333 335 336 336 335 335 332 330 328 329 331 333 335 335 329 317 307 301 300 302 303 305 306 307 307 306 305 306 306 307 309 309 309 308 307 307 308 309 309 308 305 300 294 286 274 267 265 265 265 264 266 269 273 278 285 291 292 289 286 283 274 264 257 250 243 243 246 251 257 263
316 315 314 314 314 314 316 317 318 320 322 323 325 327 329 331 333 335 336 336 336 335 333 332 331 331 332 335 338 337 329 318 308 302 302 303 305 306 307 308 308 308 308 308 309 311 310 311 311 311 311 312 313 314 312 307 303 300 294 282 270 264 262 261 260 262 265 270 277 284 288 290 288 285 281 272 260 254 249 242 240 242 246 252 260
316 314 313 312 312 312 314 314 315 317 319 321 323 325 327 329 332 334 335 336 337 336 336 336 335 332 330 333 338 341 338 330 320 312 306 305 306 307 309 310 310 311 311 311 311 312 312 313 314 314 316 317 318 318 315 310 307 307 301 290 278 269 267 268 270 272 275 279 286 291 293 294 291 286 281 270 255 248 244 239 238 239 241 245 254
316 314 313 311 310 311 311 311 313 315 316 318 320 323 325 327 329 332 334 336 337 338 337 338 337 334 331 331 336 341 341 336 331 325 318 315 313 311 311 313 314 313 313 314 314 314 314 314 316 318 320 321 319 318 314 310 308 309 304 293 282 275 276 281 286 292 296 299 301 303 302 299 292 284 279 270 256 245 238 233 233 235 237 238 243
Height
3056 3051 3046 3042 3038 3033 3029 3026 3023 3021 3018 3015 3011 3009 3006 3002 2999 2997 2995 2993 2992 2989 2987 2986 2984 2981 2979 2977 2976 2975 2974 2974 2974 2974 2972 2971 2971 2972 2973 2973 2973 2975 2976 2977 2979 2980 2981 2982 2984 2985 2986 2988 2989 2991 2992 2994 2996 2998 2999 3000 3002 3004 3006 3008 3010 3011 3012 3015 3017 3018 3020 3021 3024 3026 3029 3032 3035 3038 3041 3044 3047 3051 3054 3056 3058
3051 3046 3042 3038 3034 3029 3025 3021 3019 3016 3013 3010 3006 3003 3000 2998 2995 2992 2990 2989 2987 2985 2983 2981 2979 2977 2975 2974 2972 2970 2969 2968 2968 2969 2968 2967 2966 2965 2966 2966 2966 2966 2967 2969 2970 2971 2973 2974 2975 2977 2978 2980 2982 2983 2985 2987 2989 2991 2993 2994 2996 2997 3000 3003 3005 3006 3007 3009 3011 3013 3015 3017 3018 3021 3024 3027 3030 3033 3035 3038 3042 3045 3048 3051 3053
3045 3041 3037 3034 3030 3026 3022 3017 3014 3011 3008 3004 3001 2998 2996 2993 2990 2987 2985 2983 2981 2979 2977 2975 2973 2972 2970 2969 2968 2966 2964 2963 2962 2962 2962 2962 2961 2960 2959 2959 2958 2958 2959 2960 2962 2963 2964 2965 2967 2968 2970 2972 2973 2975 2977 2979 2982 2984 2986 2988 2989 2991 2994 2997 2999 3000 3002 3004 3005 3007 3010 3012 3013 3015 3018 3021 3024 3027 3030 3033 3036 3039 3042 3045 3047
3041 3037 3034 3030 3026 3023 3018 3014 3011 3007 3004 3000 2996 2993 2991 2988 2985 2983 2980 2977 2975 2973 2971 2968 2966 2964 2964 2963 2963 2962 2961 2959 2958 2957 2957 2957 2956 2956 2955 2954 2953 2952 2951 2952 2954 2956 2956 2957 2958 2960 2962 2963 2965 2967 2969 2971 2973 2976 2978 2980 2982 2984 2986 2990 2993 2994 2996 2998 2999 3001 3005 3006 3008 3011 3012 3015 3017 3020 3023 3026 3029 3032 3035 3038 3041
3038 3034 3030 3026 3023 3020 3015 3011 3008 3004 3001 2997 2993 2990 2986 2983 2981 2978 2974 2971 2969 2967 2964 2962 2960 2958 2957 2957 2957 2957 2956 2955 2954 2954 2954 2953 2953 2953 2952 2952 2951 2949 2946 2945 2946 2948 2949 2949 2950 2951 2953 2955 2956 2958 2960 2962 2964 2967 2970 2972 2974 2976 2978 2981 2985 2988 2990 2992 2993 2996 2998 2999 3002 3006 3007 3010 3012 3013 3016 3019 3023 3026 3029 3032 3035
3037 3032 3027 3023 3020 3017 3012 3007 3004 3001 2997 2994 2991 2987 2983 2979 2976 2973 2970 2966 2964 2961 2958 2956 2955 2954 2953 2952 2951 2951 2949 2949 2950 2950 2949 2949 2948 2948 2947 2948 2947 2944 2942 2941 2941 2941 2941 2942 2943 2944 2945 2946 2948 2950 2952 2954 2956 2958 2961 2963 2966 2969 2970 2972 2976 2980 2983 2985 2987 2990 2992 2994 2997 2999 3001 3005 3006 3007 3010 3013 3016 3020 3023 3026 3029
3034 3029 3025 3021 3016 3013 3009 3005 3001 2997 2994 2991 2988 2985 2981 2977 2973 2970 2966 2963 2959 2956 2953 2951 2950 2949 2948 2947 2946 2944 2943 2944 2945 2945 2945 2944 2943 2942 2941 2941 2941 2939 2938 2937 2936 2936 2936 2935 2936 2937 2938 2939 2940 2941 2943 2945 2947 2950 2952 2954 2958 2961 2962 2964 2967 2971 2975 2977 2980 2983 2985 2988 2991 2992 2995 2998 2999 3002 3005 3007 3009 3013 3016 3020 3023
3031 3027 3022 3018 3014 3010 3006 3002 2999 2995 2991 2988 2985 2981 2978 2974 2970 2967 2964 2960 2956 2953 2950 2948 2946 2944 2943 2942 2941 2940 2940 2940 2940 2941 2940 2940 2939 2938 2937 2936 2935 2935 2934 2932 2932 2931 2931 2930 2929 2930 2932 2933 2933 2933 2934 2936 2938 2941 2944 2945 2948 2952 2954 2955 2958 2961 2965 2969 2973 2975 2977 2981 2984 2985 2988 2991 2992 2995 2999 3001 3004 3007 3009 3013 3016
3028 3024 3019 3015 3011 3006 3002 2999 2996 2992 2989 2985 2981 2978 2974 2971 2968 2964 2961 2957 2954 2951 2948 2946 2943 2941 2939 2938 2936 2936 2936 2935 2935 2936 2935 2935 2934 2934 2933 2931 2930 2929 2928 2927 2926 2925 2925 2925 2924 2923 2924 2926 2927 2927 2927 2928 2930 2932 2935 2937 2939 2942 2945 2947 2950 2952 2955 2960 2965 2967 2970 2973 2976 2978 2981 2983 2985 2989 2992 2995 2998 3001 3003 3006 3010
3026 3021 3017 3012 3008 3004 3000 2996 2993 2989 2985 2982 2978 2975 2972 2968 2965 2961 2958 2954 2951 2948 2946 2943 2941 2938 2936 2934 2933 2932 2931 2931 2931 2931 2931 2930 2929 2928 2927 2926 2925 2924 2922 2921 2921 2920 2919 2918 2918 2917 2917 2918 2919 2920 2919 2920 2922 2924 2926 2929 2931 2933 2937 2939 2941 2944 2947 2950 2954 2958 2962 2965 2968 2971 2974 2976 2978 2981 2984 2988 2991 2993 2997 3000 3003
3023 3018 3013 3009 3005 3001 2997 2993 2990 2987 2983 2979 2976 2972 2969 2965 2962 2958 2955 2952 2949 2946 2943 2941 2939 2936 2934 2932 2930 2929 2928 2928 2927 2927 2927 2926 2925 2924 2923 2921 2920 2918 2917 2915 2914 2913 2912 2911 2910 2910 2910 2910 2911 2912 2912 2912 2914 2916 2918 2921 2923 2925 2928 2931 2933 2936 2938 2941 2945 2949 2952 2956 2959 2963 2966 2969 2971 2974 2977 2980 2983 2986 2989 2993 2997
3020 3016 3011 3006 3002 2998 2994 2991 2988 2985 2981 2977 2973 2969 2966 2962 2959 2956 2953 2950 2947 2944 2941 2939 2937 2935 2932 2931 2929 2927 2926 2925 2924 2924 2923 2922 2921 2920 2918 2916 2915 2913 2911 2909 2908 2906 2905 2904 2902 2902 2902 2902 2903 2905 2905 2905 2905 2907 2910 2913 2915 2917 2920 2922 2925 2928 2930 2933 2936 2940 2944 2947 2950 2954 2958 2960 2963 2966 2969 2971 2975 2978 2980 2984 2988
3017 3013 3009 3004 3000 2996 2992 2989 2986 2983 2980 2975 2971 2968 2964 2961 2957 2954 2952 2949 2945 2942 2940 2938 2935 2933 2931 2929 2927 2926 2924 2923 2922 2921 2920 2919 2917 2916 2914 2912 2909 2907 2905 2902 2901 2899 2898 2896 2895 2894 2894 2894 2895 2896 2898 2898 2898 2898 2901 2906 2908 2910 2913 2915 2918 2921 2924 2925 2927 2931 2935 2939 2942 2946 2949 2951 2954 2958 2960 2963 2967 2970 2972 2976 2980
3014 3010 3007 3003 2999 2995 2991 2987 2983 2980 2977 2974 2970 2967 2963 2959 2956 2952 2950 2948 2944 2941 2939 2937 2934 2932 2930 2928 2926 2925 2923 2922 2920 2919 2917 2916 2914 2912 2910 2907 2904 2901 2899 2896 2894 2892 2890 2889 2888 2887 2887 2887 2887 2888 2890 2891 2891 2890 2892 2897 2902 2903 2906 2909 2912 2914 2917 2918 2919 2922 2926 2930 2934 2938 2940 2943 2946 2949 2952 2955 2959 2961 2964 2968 2971
3012 3007 3004 3001 2998 2994 2989 2985 2982 2979 2976 2973 2970 2966 2962 2959 2955 2952 2949 2947 2944 2941 2939 2936 2934 2932 2930 2928 2926 2924 2922 2921 2919 2917 2915 2913 2911 2909 2906 2903 2900 2896 2893 2890 2888 2886 2884 2882 2881 2880 2880 2880 2879 2881 2882 2883 2883 2882 2883 2889 2894 2896 2898 2902 2905 2908 2910 2911 2911 2912 2916 2921 2926 2930 2932 2935 2938 2941 2944 2948 2951 2952 2955 2959 2962
3010 3006 3002 2999 2996 2992 2988 2984 2980 2977 2974 2972 2969 2965 2962 2958 2955 2951 2948 2946 2943 2941 2938 2936 2934 2932 2930 2928 2926 2924 2922 2920 2918 2916 2914 2912 2909 2906 2904 2900 2896 2892 2888 2885 2882 2879 2877 2875 2874 2873 2873 2873 2873 2874 2875 2875 2875 2875 2876 2880 2885 2888 2891 2894 2898 2901 2902 2903 2904 2905 2907 2912 2918 2922 2925 2928 2931 2934 2937 2941 2943 2945 2948 2951 2953
3009 3004 3000 2996 2993 2991 2987 2983 2980 2977 2974 2971 2968 2965 2961 2958 2954 2951 2948 2945 2943 2940 2938 2936 2934 2932 2930 2927 2925 2923 2921 2919 2916 2915 2912 2910 2907 2904 2901 2897 2893 2888 2883 2880 2876 2873 2871 2869 2868 2867 2866 2866 2866 2867 2868 2868 2869 2869 2870 2873 2877 2882 2884 2888 2892 2894 2896 2897 2898 2898 2899 2903 2910 2914 2917 2921 2924 2927 2930 2933 2936 2939 2942 2944 2946
3008 3003 2999 2994 2991 2989 2985 2982 2979 2976 2973 2970 2967 2964 2961 2957 2954 2951 2948 2945 2943 2940 2938 2936 2934 2931 2929 2927 2925 2922 2920 2917 2915 2913 2911 2908 2906 2902 2899 2895 2890 2886 2881 2876 2872 2869 2867 2864 2863 2861 2861 2861 2861 2861 2861 2862 2862 2863 2864 2866 2871 2875 2878 2881 2885 2888 2889 2891 2892 2893 2894 2897 2903 2908 2911 2914 2918 2921 2923 2926 2929 2932 2935 2937 2939
3006 3002 2998 2993 2989 2986 2984 2981 2978 2974 2971 2968 2966 2963 2960 2957 2954 2951 2948 2945 2943 2940 2937 2935 2933 2931 2929 2926 2924 2922 2919 2917 2914 2912 2909 2907 2904 2901 2897 2893 2889 2884 2879 2874 2870 2866 2863 2861 2859 2857 2856 2856 2856 2856 2856 2857 2857 2858 2859 2861 2865 2868 2871 2874 2879 2882 2884 2885 2887 2889 2890 2893 2898 2903 2906 2909 2912 2915 2917 2920 2923 2926 2928 2930 2933
3003 2999 2995 2991 2988 2984 2982 2979 2976 2972 2970 2967 2964 2962 2959 2957 2954 2951 2948 2945 2942 2939 2937 2935 2932 2930 2928 2925 2923 2921 2918 2916 2913 2911 2908 2905 2902 2899 2895 2891 2887 2883 2878 2873 2868 2864 2861 2858 2856 2854 2853 2852 2852 2852 2852 2852 2853 2853 2854 2856 2859 2862 2864 2867 2871 2875 2878 2880 2881 2883 2885 2887 2892 2896 2900 2903 2906 2908 2911 2914 2917 2920 2922 2924 2928
3001 2997 2993 2989 2986 2983 2980 2978 2975 2971 2968 2966 2963 2960 2958 2955 2952 2950 2948 2945 2942 2939 2937 2934 2932 2929 2927 2925 2923 2920 2918 2915 2912 2909 2907 2904 2901 2898 2894 2890 2886 2881 2877 2873 2868 2864 2860 2857 2854 2852 2850 2849 2848 2848 2848 2848 2848 2849 2850 2851 2854 2856 2858 2861 2864 2868 2871 2873 2875 2877 2879 2882 2885 2889 2893 2897 2900 2902 2905 2908 2911 2914 2916 2919 2922
2998 2994 2991 2987 2984 2982 2978 2976 2973 2970 2967 2964 2961 2958 2956 2953 2951 2949 2946 2944 2941 2939 2936 2934 2931 2929 2926 2924 2921 2919 2917 2914 2912 2909 2906 2903 2899 2896 2892 2889 2885 2881 2877 2873 2869 2865 2861 2857 2854 2851 2849 2847 2846 2845 2845 2845 2845 2845 2846 2847 2849 2851 2853 2856 2859 2862 2865 2867 2870 2871 2873 2877 2880 2882 2886 2891 2893 2896 2900 2902 2905 2908 2911 2913 2916
2996 2992 2989 2986 2983 2980 2977 2974 2971 2968 2965 2962 2959 2956 2954 2951 2949 2947 2945 2943 2940 2938 2935 2933 2931 2928 2925 2923 2920 2918 2916 2913 2911 2908 2905 2902 2898 2895 2891 2888 2884 2880 2876 2873 2869 2865 2862 2858 2854 2851 2848 2846 2844 2843 2842 2841 2841 2842 2843 2843 2845 2846 2848 2851 2854 2857 2860 2862 2864 2866 2869 2872 2874 2877 2880 2884 2887 2891 2894 2897 2900 2903 2905 2908 2911
2994 2990 2987 2984 2980 2977 2974 2971 2969 2966 2963 2960 2957 2954 2952 2949 2947 2945 2943 2941 2939 2936 2934 2932 2930 2927 2924 2921 2919 2917 2914 2912 2909 2906 2904 2901 2897 2894 2890 2886 2883 2879 2875 2872 2869 2866 2862 2859 2855 2852 2849 2846 2843 2841 2840 2839 2838 2838 2839 2840 2841 2842 2844 2846 2849 2851 2854 2857 2859 2861 2864 2867 2869 2871 2874 2878 2882 2885 2888 2891 2894 2897 2900 2903 2906
2992 2988 2985 2982 2978 2974 2971 2969 2966 2963 2961 2958 2955 2952 2950 2947 2945 2942 2940 2938 2936 2935 2932 2930 2928 2926 2923 2920 2917 2915 2913 2910 2907 2905 2902 2899 2896 2893 2889 2886 2882 2878 2874 2871 2868 2865 2862 2859 2856 2852 2849 2846 2843 2841 2839 2837 2836 2836 2836 2836 2837 2839 2840 2842 2844 2847 2849 2851 2853 2856 2859 2861 2864 2866 2869 2873 2876 2879 2882 2885 2888 2892 2895 2898 2901
2990 2986 2983 2979 2976 2972 2969 2966 2964 2961 2958 2956 2953 2950 2947 2945 2943 2940 2938 2936 2934 2932 2930 2928 2926 2924 2921 2918 2916 2913 2911 2908 2905 2903 2900 2898 2895 2892 2889 2885 2881 2877 2873 2870 2867 2865 2862 2859 2856 2853 2850 2847 2844 2841 2839 2837 2835 2834 2834 2834 2834 2835 2837 2839 2841 2843 2845 2847 2849 2851 2854 2856 2859 2861 2865 2868 2871 2874 2877 2880 2883 2886 2890 2893 2895
2988 2984 2981 2978 2974 2971 2967 2964 2961 2958 2955 2953 2950 2947 2945 2942 2940 2937 2935 2933 2931 2929 2927 2925 2923 2921 2919 2916 2914 2911 2908 2906 2903 2900 2898 2896 2893 2891 2888 2884 2880 2877 2873 2869 2866 2864 2861 2859 2856 2853 2851 2848 2845 2842 2840 2837 2835 2834 2833 2832 2832 2833 2834 2835 2837 2839 2841 2843 2845 2847 2850 2852 2855 2858 2860 2863 2866 2869 2872 2875 2878 2881 2884 2887 2889
2986 2983 2979 2976 2973 2970 2966 2963 2959 2956 2953 2950 2948 2945 2942 2940 2937 2935 2932 2930 2928 2926 2924 2922 2921 2919 2916 2914 2911 2909 2906 2903 2901 2898 2896 2894 2891 2889 2886 2883 2880 2876 2873 2869 2866 2863 2860 2858 2856 2853 2851 2848 2846 2843 2841 2839 2836 2834 2832 2831 2831 2831 2831 2833 2834 2836 2838 2840 2842 2844 2846 2849 2851 2854 2857 2860 2863 2866 2868 2870 2873 2876 2878 2881 2883
2984 2981 2977 2974 2970 2967 2964 2960 2956 2953 2950 2948 2946 2943 2940 2937 2934 2932 2929 2927 2925 2923 2921 2919 2918 2916 2914 2912 2909 2907 2904 2901 2899 2896 2894 2891 2889 2887 2885 2882 2879 2876 2872 2868 2865 2862 2860 2857 2855 2853 2851 2848 2846 2844 2842 2840 2837 2835 2833 2831 2830 2830 2830 2831 2832 2834 2835 2837 2839 2841 2843 2846 2848 2850 2853 2856 2859 2861 2863 2865 2868 2870 2873 2876 2878
2982 2978 2975 2971 2968 2964 2961 2958 2954 2950 2947 2945 2943 2940 2937 2935 2932 2929 2926 2924 2922 2920 2918 2916 2914 2912 2911 2909 2907 2904 2902 2899 2897 2894 2892 2889 2887 2885 2883 2881 2878 2875 2872 2868 2865 2861 2859 2856 2854 2852 2850 2848 2846 2844 2842 2840 2838 2836 2834 2832 2830 2829 2829 2830 2830 2832 2833 2835 2836 2838 2840 2843 2845 2847 2849 2852 2854 2856 2858 2860 2863 2866 2868 2871 2874
2980 2976 2972 2969 2966 2962 2958 2954 2950 2947 2944 2942 2940 2937 2934 2931 2929 2926 2924 2921 2919 2917 2915 2913 2910 2909 2907 2906 2904 2902 2900 2897 2895 2893 2890 2887 2885 2883 2881 2879 2876 2874 2871 2867 2864 2861 2858 2855 2853 2850 2849 2847 2845 2844 2842 2840 2838 2836 2835 2833 2832 2830 2829 2829 2829 2830 2831 2832 2833 2835 2837 2839 2841 2843 2845 2848 2850 2851 2853 2856 2858 2861 2864 2866 2869
2978 2974 2970 2967 2963 2959 2955 2951 2948 2945 2942 2939 2936 2934 2931 2928 2926 2923 2921 2918 2916 2914 2912 2910 2907 2905 2904 2902 2901 2899 2897 2895 2893 2891 2888 2886 2883 2881 2879 2877 2875 2872 2870 2867 2863 2860 2857 2854 2852 2849 2848 2846 2844 2843 2841 2840 2838 2837 2835 2834 2833 2831 2830 2829 2829 2829 2829 2830 2831 2832 2833 2835 2837 2839 2841 2843 2845 2846 2848 2851 2853 2856 2859 2861 2864
2976 2972 2968 2964 2960 2956 2952 2949 2945 2942 2939 2936 2933 2930 2928 2925 2923 2921 2918 2916 2913 2911 2909 2907 2904 2902 2900 2898 2897 2896 2895 2893 2890 2889 2886 2884 2882 2879 2877 2875 2873 2871 2869 2866 2863 2860 2857 2854 2852 2849 2847 2845 2843 2842 2840 2839 2838 2836 2835 2834 2833 2832 2831 2830 2829 2829 2828 2828 2828 2829 2830 2831 2832 2834 2836 2838 2840 2841 2843 2846 2848 2851 2854 2856 2859
2974 2970 2965 2961 2957 2954 2950 2946 2943 2940 2936 2933 2930 2927 2924 2921 2919 2917 2915 2913 2910 2908 2906 2904 2901 2899 2897 2895 2894 2893 2892 2890 2888 2886 2884 2882 2880 2877 2875 2873 2871 2869 2867 2865 2862 2859 2856 2853 2851 2849 2846 2845 2843 2841 2840 2838 2837 2836 2835 2834 2833 2832 2831 2831 2830 2829 2828 2828 2827 2828 2828 2829 2829 2830 2832 2834 2835 2837 2839 2841 2843 2846 2848 2851 2854
2971 2966 2962 2958 2954 2951 2948 2944 2941 2938 2934 2931 2927 2924 2921 2918 2916 2914 2912 2910 2907 2905 2903 2900 2898 2896 2894 2892 2891 2889 2888 2887 2885 2884 2882 2880 2878 2875 2873 2871 2869 2868 2866 2863 2861 2858 2856 2853 2850 2848 2846 2845 2843 2841 2839 2838 2836 2835 2834 2833 2832 2832 2831 2831 2830 2829 2829 2828 2827 2827 2827 2827 2828 2829 2829 2830 2832 2833 2835 2837 2839 2841 2844 2846 2849
2967 2963 2959 2955 2952 2949 2945 2942 2939 2935 2932 2928 2925 2922 2919 2915 2913 2910 2908 2906 2904 2902 2900 2897 2895 2893 2891 2889 2888 2886 2885 2884 2882 2881 2879 2878 2876 2873 2872 2870 2868 2866 2864 2862 2859 2857 2854 2852 2849 2847 2846 2844 2843 2841 2839 2838 2836 2834 2833 2832 2832 2831 2830 2830 2830 2829 2828 2828 2827 2827 2827 2827 2827 2827 2828 2828 2829 2830 2832 2833 2835 2837 2839 2842 2844
2964 2960 2957 2953 2950 2946 2943 2940 2936 2933 2930 2926 2923 2920 2917 2913 2910 2907 2905 2903 2901 2899 2897 2895 2893 2890 2888 2887 2885 2883 2882 2881 2879 2878 2876 2875 2873 2871 2869 2868 2867 2865 2862 2860 2858 2856 2853 2851 2849 2847 2845 2844 2842 2841 2839 2838 2836 2834 2833 2832 2831 2830 2829 2829 2828 2828 2828 2827 2827 2826 2826 2826 2826 2826 2826 2826 2827 2828 2829 2831 2832 2834 2836 2837 2840
2963 2959 2955 2951 2947 2944 2941 2938 2934 2931 2928 2924 2921 2918 2914 2911 2908 2905 2902 2900 2898 2896 2894 2892 2890 2888 2886 2884 2882 2880 2879 2878 2876 2875 2873 2871 2870 2869 2867 2866 2864 2863 2861 2859 2857 2855 2852 2850 2847 2846 2844 2842 2841 2840 2839 2837 2836 2835 2834 2832 2830 2829 2828 2827 2827 2827 2826 2826 2826 2825 2825 2825 2825 2825 2825 2825 2825 2826 2827 2828 2830 2831 2832 2834 2836
2961 2957 2954 2950 2946 2942 2939 2935 2932 2929 2925 2922 2919 2915 2912 2909 2906 2903 2900 2897 2894 2893 2891 2889 2887 2885 2883 2881 2879 2878 2876 2874 2873 2871 2870 2868 2867 2866 2865 2863 2862 2860 2859 2857 2855 2853 2851 2848 2846 2844 2843 2841 2840 2838 2837 2836 2836 2835 2834 2831 2829 2828 2826 2825 2825 2824 2824 2825 2825 2824 2824 2824 2824 2824 2823 2823 2824 2824 2824 2826 2827 2828 2830 2831 2834
2959 2955 2952 2948 2944 2941 2937 2934 2931 2927 2923 2920 2917 2913 2910 2907 2904 2901 2898 2895 2892 2890 2888 2886 2884 2882 2880 2878 2876 2875 2873 2871 2870 2868 2866 2865 2864 2863 2862 2860 2859 2857 2856 2854 2853 2851 2849 2847 2845 2843 2841 2840 2838 2836 2836 2835 2833 2833 2831 2829 2828 2826 2825 2824 2823 2822 2822 2822 2822 2822 2822 2822 2822 2822 2822 2822 2822 2822 2823 2824 2825 2825 2827 2829 2831
2958 2954 2950 2946 2942 2939 2935 2932 2928 2925 2921 2918 2915 2911 2908 2905 2902 2899 2896 2893 2890 2887 2885 2883 2881 2879 2877 2875 2874 2872 2870 2868 2867 2865 2863 2862 2860 2860 2859 2858 2856 2855 2853 2852 2850 2849 2847 2845 2843 2841 2840 2838 2836 2834 2833 2832 2831 2830 2829 2827 2825 2824 2823 2821 2820 2820 2820 2819 2819 2819 2820 2820 2820 2820 2821 2821 2821 2821 2821 2821 2822 2823 2824 2826 2827
2956 2952 2948 2944 2940 2936 2932 2929 2926 2922 2919 2916 2913 2909 2906 2903 2900 2897 2894 2892 2889 2886 2883 2880 2878 2876 2874 2873 2871 2869 2867 2866 2864 2862 2861 2859 2858 2857 2856 2855 2854 2852 2851 2849 2847 2846 2844 2843 2841 2840 2838 2836 2834 2832 2831 2830 2829 2828 2826 2825 2823 2822 2821 2819 2818 2818 2818 2817 2817 2817 2817 2817 2817 2817 2818 2818 2819 2819 2819 2819 2820 2821 2821 2822 2823
2953 2949 2946 2942 2938 2934 2930 2927 2924 2921 2917 2914 2911 2908 2904 2901 2898 2895 2892 2890 2887 2884 2881 2878 2875 2873 2871 2870 2868 2866 2864 2863 2861 2859 2858 2857 2855 2854 2853 2852 2851 2849 2848 2847 2845 2843 2842 2840 2839 2837 2836 2834 2832 2831 2829 2827 2826 2825 2824 2823 2821 2819 2818 2817 2816 2816 2815 2815 2815 2815 2814 2814 2814 2814 2815 2815 2816 2816 2816 2816 2816 2817 2818 2819 2819
2951 2947 2943 2940 2936 2933 2929 2925 2922 2919 2915 2912 2909 2906 2903 2899 2896 2893 2890 2887 2885 2882 2879 2876 2873 2871 2869 2867 2865 2863 2861 2860 2858 2857 2855 2854 2853 2851 2850 2849 2848 2846 2845 2844 2843 2841 2840 2838 2837 2836 2834 2831 2830 2828 2826 2825 2823 2822 2821 2820 2818 2817 2816 2814 2814 2813 2813 2813 2812 2812 2812 2812 2811 2811 2811 2811 2812 2812 2812 2813 2814 2814 2814 2815 2815
2947 2944 2940 2937 2934 2931 2927 2924 2920 2917 2914 2910 2907 2904 2901 2898 2894 2891 2888 2885 2883 2880 2877 2874 2871 2868 2866 2864 2862 2861 2859 2857 2855 2853 2852 2851 2850 2849 2847 2846 2844 2843 2842 2841 2840 2838 2837 2836 2834 2833 2832 2829 2827 2825 2824 2822 2820 2818 2817 2816 2815 2814 2813 2812 2811 2811 2810 2810 2810 2809 2809 2809 2808 2808 2808 2808 2808 2808 2809 2810 2811 2811 2811 2811 2812
2944 2941 2937 2934 2931 2928 2925 2922 2918 2915 2912 2909 2905 2902 2900 2896 2893 2889 2886 2883 2880 2877 2874 2872 2869 2866 2864 2861 2859 2858 2856 2854 2852 2850 2849 2848 2847 2846 2845 2843 2842 2840 2839 2838 2837 2835 2834 2833 2831 2830 2828 2826 2824 2822 2821 2819 2816 2815 2814 2813 2812 2811 2810 2809 2808 2808 2807 2807 2807 2806 2806 2805 2805 2805 2804 2804 2805 2805 2806 2806 2807 2808 2808 2808 2808
2940 2937 2934 2931 2928 2925 2922 2919 2916 2913 2910 2906 2903 2901 2898 2895 2891 2888 2885 2881 2878 2875 2872 2870 2867 2864 2862 2859 2856 2854 2853 2851 2849 2847 2845 2844 2843 2843 2842 2840 2839 2837 2836 2834 2833 2832 2830 2829 2828 2826 2825 2823 2821 2819 2817 2815 2813 2811 2810 2809 2808 2808 2807 2806 2806 2805 2805 2804 2804 2804 2803 2802 2802 2801 2801 2801 2801 2801 2802 2802 2804 2805 2805 2806 2806
2936 2933 2930 2927 2925 2922 2919 2916 2913 2910 2907 2904 2901 2898 2896 2893 2890 2887 2883 2880 2876 2873 2870 2868 2865 2862 2860 2857 2854 2852 2850 2848 2847 2845 2843 2841 2840 2839 2838 2837 2836 2834 2832 2831 2830 2828 2827 2825 2824 2822 2821 2819 2817 2815 2813 2811 2809 2807 2806 2805 2805 2805 2804 2804 2803 2803 2802 2802 2802 2801 2800 2799 2799 2798 2798 2798 2798 2798 2798 2799 2800 2802 2802 2803 2803
2932 2929 2926 2923 2921 2918 2915 2912 2910 2907 2904 2901 2899 2896 2893 2891 2888 2885 2882 2879 2875 2872 2869 2866 2863 2860 2858 2855 2853 2850 2848 2846 2844 2842 2840 2839 2837 2836 2835 2834 2833 2831 2829 2828 2826 2824 2823 2821 2820 2818 2816 2814 2813 2811 2809 2807 2805 2804 2803 2802 2801 2801 2801 2801 2800 2800 2800 2799 2799 2798 2798 2797 2796 2795 2795 2795 2795 2795 2795 2796 2797 2799 2800 2800 2800
2928 2925 2922 2920 2917 2914 2912 2909 2906 2904 2901 2898 2896 2893 2890 2888 2886 2883 2880 2877 2874 2870 2867 2864 2861 2859 2857 2854 2851 2849 2847 2845 2842 2840 2838 2836 2834 2832 2831 2830 2829 2828 2826 2824 2823 2821 2819 2817 2816 2815 2813 2810 2808 2806 2805 2803 2802 2801 2800 2799 2798 2798 2797 2797 2797 2797 2797 2796 2796 2795 2795 2794 2793 2792 2792 2792 2792 2792 2793 2794 2795 2796 2797 2797 2798
2924 2921 2918 2916 2913 2910 2908 2905 2903 2900 2898 2895 2893 2890 2887 2885 2883 2880 2878 2875 2872 2869 2865 2862 2860 2857 2855 2853 2850 2847 2845 2844 2842 2839 2836 2834 2832 2830 2828 2826 2825 2824 2823 2821 2820 2818 2816 2814 2812 2811 2810 2808 2805 2803 2801 2800 2799 2798 2797 2796 2796 2795 2795 2794 2794 2794 2794 2793 2793 2792 2791 2791 2790 2789 2789 2789 2790 2790 2791 2792 2792 2793 2794 2795 2796